GIA6128 WIMM-OEMA

Flight info

Callsign GIA6128
Flight time N/A
Altitude 36000
Route WIMM/05 N0476F360 INAN1A INANG DCT MABIX P570 TEBIT/N0471F380 P570 TVM UL425 ASPUX/N0465F400 N315 SITOL DCT PUSON L883 KITUB Y511 ELONU ELON1H OEMA/35
Aircraft A333/H-VGDW/C

Departure

Time 2026-05-06 12:09
Airport Kualanamu International Airport (WIMM)

Arrival

Time N/A
Airport Prince Mohammad Bin Abdulaziz Airport (OEMA)
Time Latitude Longitude Altitude Speed Heading
2026-05-06 11:31 3.63774 98.87964 31 ft 0 kts 223°
2026-05-06 11:56 3.63785 98.87974 31 ft 3 kts 223°
2026-05-06 11:56 3.63798 98.87987 31 ft 3 kts 223°
2026-05-06 11:56 3.63812 98.88000 31 ft 3 kts 234°
2026-05-06 11:56 3.63820 98.88018 31 ft 3 kts 281°
2026-05-06 11:57 3.63812 98.88036 31 ft 3 kts 325°
2026-05-06 11:57 3.63796 98.88047 30 ft 3 kts 320°
2026-05-06 11:57 3.63795 98.88048 31 ft 0 kts 315°
2026-05-06 11:59 3.63796 98.88047 31 ft 0 kts 315°
2026-05-06 11:59 3.63802 98.88041 31 ft 3 kts 315°
2026-05-06 11:59 3.63831 98.88012 31 ft 8 kts 316°
2026-05-06 12:00 3.63883 98.87968 31 ft 10 kts 335°
2026-05-06 12:00 3.63943 98.87984 31 ft 9 kts 35°
2026-05-06 12:00 3.63990 98.88028 31 ft 10 kts 44°
2026-05-06 12:00 3.64047 98.88085 31 ft 13 kts 45°
2026-05-06 12:01 3.64122 98.88137 31 ft 12 kts
2026-05-06 12:01 3.64187 98.88093 31 ft 11 kts 318°
2026-05-06 12:01 3.64244 98.88039 31 ft 11 kts 316°
2026-05-06 12:01 3.64295 98.87982 31 ft 11 kts 297°
2026-05-06 12:02 3.64275 98.87924 31 ft 9 kts 226°
2026-05-06 12:02 3.64229 98.87878 31 ft 11 kts 224°
2026-05-06 12:02 3.64159 98.87809 31 ft 17 kts 225°
2026-05-06 12:02 3.64076 98.87727 29 ft 17 kts 225°
2026-05-06 12:03 3.63995 98.87647 31 ft 16 kts 225°
2026-05-06 12:03 3.63915 98.87568 31 ft 16 kts 225°
2026-05-06 12:03 3.63837 98.87488 31 ft 16 kts 225°
2026-05-06 12:03 3.63760 98.87411 31 ft 16 kts 225°
2026-05-06 12:04 3.63685 98.87336 31 ft 15 kts 225°
2026-05-06 12:04 3.63618 98.87257 31 ft 14 kts 253°
2026-05-06 12:04 3.63638 98.87176 31 ft 11 kts 262°
2026-05-06 12:04 3.63592 98.87117 32 ft 12 kts 225°
2026-05-06 12:05 3.63515 98.87041 31 ft 19 kts 225°
2026-05-06 12:05 3.63410 98.86937 31 ft 24 kts 225°
2026-05-06 12:05 3.63285 98.86813 31 ft 26 kts 224°
2026-05-06 12:05 3.63160 98.86687 31 ft 25 kts 225°
2026-05-06 12:06 3.63039 98.86567 31 ft 24 kts 225°
2026-05-06 12:06 3.62922 98.86451 32 ft 23 kts 225°
2026-05-06 12:06 3.62810 98.86339 32 ft 22 kts 225°
2026-05-06 12:06 3.62701 98.86230 32 ft 22 kts 225°
2026-05-06 12:07 3.62594 98.86124 32 ft 21 kts 224°
2026-05-06 12:07 3.62513 98.86029 32 ft 16 kts 252°
2026-05-06 12:07 3.62544 98.85933 31 ft 15 kts 317°
2026-05-06 12:07 3.62608 98.85895 32 ft 8 kts
2026-05-06 12:08 3.62649 98.85924 32 ft 7 kts 43°
2026-05-06 12:08 3.62695 98.85968 33 ft 16 kts 44°
2026-05-06 12:08 3.62892 98.86165 34 ft 68 kts 45°
2026-05-06 12:08 3.63352 98.86621 30 ft 120 kts 45°
2026-05-06 12:09 3.64060 98.87328 31 ft 166 kts 45°
2026-05-06 12:09 3.64944 98.88214 383 ft 183 kts 47°
2026-05-06 12:09 3.65827 98.89126 1081 ft 182 kts 35°
2026-05-06 12:09 3.67043 98.89447 1538 ft 192 kts 351°
2026-05-06 12:10 3.67876 98.89094 1667 ft 206 kts 321°
2026-05-06 12:10 3.68843 98.87936 1877 ft 230 kts 304°
2026-05-06 12:10 3.69778 98.86542 2129 ft 251 kts 305°
2026-05-06 12:10 3.71181 98.84597 2693 ft 264 kts 307°
2026-05-06 12:11 3.72294 98.83147 3247 ft 267 kts 308°
2026-05-06 12:11 3.73445 98.81685 3793 ft 270 kts 308°
2026-05-06 12:11 3.74628 98.80209 4326 ft 273 kts 309°
2026-05-06 12:11 3.75437 98.79210 4728 ft 274 kts 309°
2026-05-06 12:12 3.76649 98.77719 5296 ft 278 kts 309°
2026-05-06 12:12 3.78274 98.75721 6083 ft 281 kts 309°
2026-05-06 12:12 3.79111 98.74693 6492 ft 283 kts 309°
2026-05-06 12:12 3.80349 98.73174 7091 ft 285 kts 309°
2026-05-06 12:13 3.81590 98.71617 7711 ft 287 kts 303°
2026-05-06 12:13 3.82508 98.69840 8298 ft 289 kts 292°
2026-05-06 12:13 3.83253 98.67959 8863 ft 292 kts 291°
2026-05-06 12:13 3.83978 98.66046 9429 ft 295 kts 290°
2026-05-06 12:14 3.84712 98.64113 10020 ft 297 kts 290°
2026-05-06 12:14 3.85464 98.62147 10388 ft 309 kts 290°
2026-05-06 12:14 3.86256 98.60087 10603 ft 325 kts 290°
2026-05-06 12:14 3.87089 98.57928 10816 ft 340 kts 291°
2026-05-06 12:15 3.87960 98.55677 11024 ft 354 kts 291°
2026-05-06 12:15 3.88868 98.53335 11262 ft 366 kts 291°
2026-05-06 12:15 3.89799 98.50931 11662 ft 373 kts 291°
2026-05-06 12:15 3.90742 98.48494 12145 ft 377 kts 291°
2026-05-06 12:16 3.91696 98.46031 12632 ft 381 kts 291°
2026-05-06 12:16 3.92659 98.43546 13117 ft 385 kts 291°
2026-05-06 12:16 3.93631 98.41035 13609 ft 388 kts 291°
2026-05-06 12:16 3.94611 98.38504 14101 ft 391 kts 291°
2026-05-06 12:17 3.95596 98.35958 14583 ft 394 kts 291°
2026-05-06 12:17 3.96592 98.33381 15063 ft 397 kts 291°
2026-05-06 12:17 3.97594 98.30788 15504 ft 401 kts 291°
2026-05-06 12:17 3.98605 98.28175 15952 ft 404 kts 292°
2026-05-06 12:18 3.99624 98.25544 16399 ft 406 kts 292°
2026-05-06 12:18 4.00651 98.22894 16811 ft 409 kts 292°
2026-05-06 12:18 4.01674 98.20253 17188 ft 413 kts 292°
2026-05-06 12:18 4.02714 98.17567 17607 ft 415 kts 292°
2026-05-06 12:19 4.03764 98.14854 17991 ft 418 kts 292°
2026-05-06 12:19 4.04820 98.12126 18393 ft 421 kts 292°
2026-05-06 12:19 4.05881 98.09384 18788 ft 424 kts 292°
2026-05-06 12:19 4.06948 98.06624 19190 ft 426 kts 292°
2026-05-06 12:20 4.08014 98.03839 19554 ft 428 kts 290°
2026-05-06 12:20 4.08754 98.00942 19885 ft 432 kts 277°
2026-05-06 12:20 4.08748 97.97931 20216 ft 434 kts 261°
2026-05-06 12:20 4.07908 97.95032 20533 ft 435 kts 244°
2026-05-06 12:21 4.06324 97.92463 20856 ft 435 kts 231°
2026-05-06 12:21 4.04405 97.90110 21219 ft 436 kts 229°
2026-05-06 12:21 4.02433 97.87795 21555 ft 438 kts 228°
2026-05-06 12:21 4.00450 97.85467 21879 ft 440 kts 228°
2026-05-06 12:22 3.98464 97.83120 22161 ft 443 kts 229°
2026-05-06 12:22 3.96476 97.80759 22451 ft 444 kts 229°
2026-05-06 12:22 3.94478 97.78383 22747 ft 447 kts 229°
2026-05-06 12:22 3.92496 97.76020 23056 ft 448 kts 229°
2026-05-06 12:23 3.90651 97.73493 23335 ft 451 kts 238°
2026-05-06 12:23 3.89208 97.70693 23581 ft 454 kts 245°
2026-05-06 12:23 3.87943 97.67782 23844 ft 456 kts 246°
2026-05-06 12:23 3.86703 97.64844 24097 ft 458 kts 246°
2026-05-06 12:24 3.85462 97.61900 24374 ft 459 kts 246°
2026-05-06 12:24 3.84214 97.58951 24669 ft 460 kts 246°
2026-05-06 12:24 3.82963 97.56000 24952 ft 462 kts 246°
2026-05-06 12:24 3.81703 97.53035 25229 ft 463 kts 246°
2026-05-06 12:25 3.80439 97.50065 25517 ft 464 kts 246°
2026-05-06 12:25 3.79171 97.47085 25787 ft 465 kts 246°
2026-05-06 12:25 3.77899 97.44101 26058 ft 466 kts 246°
2026-05-06 12:25 3.76642 97.41148 26297 ft 468 kts 246°
2026-05-06 12:26 3.75365 97.38151 26560 ft 469 kts 246°
2026-05-06 12:26 3.74082 97.35140 26826 ft 470 kts 246°
2026-05-06 12:26 3.72796 97.32123 27077 ft 471 kts 246°
2026-05-06 12:26 3.71508 97.29102 27336 ft 473 kts 246°
2026-05-06 12:27 3.70217 97.26071 27604 ft 474 kts 246°
2026-05-06 12:27 3.68920 97.23029 27856 ft 475 kts 246°
2026-05-06 12:27 3.67623 97.19990 28102 ft 476 kts 246°
2026-05-06 12:27 3.66321 97.16933 28342 ft 478 kts 246°
2026-05-06 12:28 3.65013 97.13866 28601 ft 478 kts 246°
2026-05-06 12:28 3.63702 97.10792 28823 ft 480 kts 246°
2026-05-06 12:28 3.62389 97.07715 29064 ft 481 kts 246°
2026-05-06 12:28 3.61074 97.04631 29285 ft 483 kts 246°
2026-05-06 12:29 3.59772 97.01580 29508 ft 484 kts 246°
2026-05-06 12:29 3.58446 96.98475 29722 ft 485 kts 246°
2026-05-06 12:29 3.57119 96.95364 29942 ft 486 kts 246°
2026-05-06 12:29 3.55786 96.92243 30135 ft 487 kts 246°
2026-05-06 12:30 3.54452 96.89120 30315 ft 489 kts 246°
2026-05-06 12:30 3.53113 96.85982 30485 ft 490 kts 246°
2026-05-06 12:30 3.51771 96.82841 30655 ft 492 kts 246°
2026-05-06 12:30 3.50424 96.79688 30861 ft 492 kts 246°
2026-05-06 12:31 3.49084 96.76547 31128 ft 491 kts 246°
2026-05-06 12:31 3.47740 96.73399 31388 ft 491 kts 246°
2026-05-06 12:31 3.46399 96.70260 31639 ft 490 kts 246°
2026-05-06 12:31 3.45059 96.67122 31884 ft 489 kts 246°
2026-05-06 12:32 3.43736 96.64023 32123 ft 489 kts 246°
2026-05-06 12:32 3.42402 96.60902 32341 ft 489 kts 246°
2026-05-06 12:32 3.41063 96.57769 32580 ft 488 kts 246°
2026-05-06 12:32 3.39728 96.54646 32805 ft 488 kts 246°
2026-05-06 12:33 3.38404 96.51521 33039 ft 487 kts 248°
2026-05-06 12:33 3.37346 96.48303 33264 ft 487 kts 256°
2026-05-06 12:33 3.36790 96.44963 33460 ft 487 kts 263°
2026-05-06 12:33 3.36474 96.41589 33683 ft 487 kts 265°
2026-05-06 12:34 3.36248 96.38202 33891 ft 486 kts 266°
2026-05-06 12:34 3.36062 96.34829 34089 ft 486 kts 267°
2026-05-06 12:34 3.35885 96.31448 34295 ft 485 kts 267°
2026-05-06 12:34 3.35703 96.28082 34496 ft 485 kts 266°
2026-05-06 12:35 3.35510 96.24709 34645 ft 485 kts 266°
2026-05-06 12:35 3.35309 96.21332 34801 ft 486 kts 266°
2026-05-06 12:35 3.35100 96.17964 34998 ft 485 kts 266°
2026-05-06 12:35 3.34888 96.14600 35152 ft 485 kts 266°
2026-05-06 12:36 3.34673 96.11218 35303 ft 485 kts 266°
2026-05-06 12:36 3.34459 96.07857 35486 ft 485 kts 266°
2026-05-06 12:36 3.34245 96.04481 35646 ft 485 kts 266°
2026-05-06 12:36 3.34032 96.01118 35760 ft 485 kts 266°
2026-05-06 12:37 3.33611 95.94448 35786 ft 481 kts 266°
2026-05-06 12:37 3.33186 95.87766 35784 ft 481 kts 266°
2026-05-06 12:38 3.32762 95.81085 35791 ft 481 kts 266°
2026-05-06 12:38 3.32338 95.74399 35786 ft 481 kts 266°
2026-05-06 12:39 3.31917 95.67760 35792 ft 481 kts 266°
2026-05-06 12:39 3.31493 95.61082 35806 ft 481 kts 266°
2026-05-06 12:40 3.31067 95.54401 35803 ft 481 kts 266°
2026-05-06 12:40 3.30642 95.47726 35804 ft 481 kts 266°
2026-05-06 12:41 3.30214 95.41037 35804 ft 481 kts 266°
2026-05-06 12:41 3.29788 95.34347 35804 ft 481 kts 266°
2026-05-06 12:42 3.29361 95.27671 35803 ft 480 kts 266°
2026-05-06 12:42 3.28933 95.20997 35804 ft 480 kts 266°
2026-05-06 12:43 3.28504 95.14333 35806 ft 480 kts 266°
2026-05-06 12:43 3.28079 95.07668 35804 ft 479 kts 266°
2026-05-06 12:44 3.27655 95.01051 35804 ft 480 kts 266°
2026-05-06 12:44 3.27227 94.94387 35804 ft 480 kts 266°
2026-05-06 12:45 3.26825 94.87717 35804 ft 480 kts 269°
2026-05-06 12:45 3.27630 94.81117 35804 ft 480 kts 282°
2026-05-06 12:46 3.28389 94.77862 35805 ft 480 kts 284°
2026-05-06 12:46 3.30077 94.71388 35804 ft 480 kts 285°
2026-05-06 12:47 3.31813 94.64936 35803 ft 481 kts 285°
2026-05-06 12:47 3.33520 94.58508 35804 ft 481 kts 284°
2026-05-06 12:48 3.35220 94.52036 35804 ft 481 kts 284°
2026-05-06 12:48 3.36913 94.45565 35804 ft 481 kts 284°
2026-05-06 12:49 3.38606 94.39084 35804 ft 481 kts 284°
2026-05-06 12:49 3.40301 94.32604 35804 ft 481 kts 284°
2026-05-06 12:50 3.41991 94.26157 35803 ft 481 kts 284°
2026-05-06 12:50 3.43686 94.19669 35803 ft 481 kts 284°
2026-05-06 12:51 3.45381 94.13184 35805 ft 481 kts 284°
2026-05-06 12:51 3.47074 94.06702 35805 ft 481 kts 284°
2026-05-06 12:52 3.48767 94.00217 35804 ft 481 kts 284°
2026-05-06 12:52 3.50447 93.93785 35806 ft 481 kts 284°
2026-05-06 12:53 3.52140 93.87301 35803 ft 481 kts 284°
2026-05-06 12:53 3.53831 93.80823 35806 ft 481 kts 284°
2026-05-06 12:54 3.55522 93.74346 35804 ft 481 kts 284°
2026-05-06 12:54 3.57210 93.67870 35806 ft 481 kts 284°
2026-05-06 12:55 3.58901 93.61385 35803 ft 481 kts 284°
2026-05-06 12:55 3.60592 93.54907 35803 ft 481 kts 284°
2026-05-06 12:56 3.62271 93.48456 35803 ft 481 kts 284°
2026-05-06 12:56 3.63959 93.41971 35804 ft 481 kts 284°
2026-05-06 12:57 3.65650 93.35486 35804 ft 481 kts 284°
2026-05-06 12:57 3.67339 93.28998 35803 ft 481 kts 284°
2026-05-06 12:58 3.69026 93.22514 35804 ft 481 kts 284°
2026-05-06 12:58 3.70426 93.17136 35804 ft 480 kts 284°
2026-05-06 12:59 3.72395 93.09568 35804 ft 480 kts 284°
2026-05-06 12:59 3.74067 93.03134 35804 ft 480 kts 284°
2026-05-06 13:00 3.75480 92.97705 35806 ft 480 kts 284°
2026-05-06 13:00 3.77162 92.91229 35806 ft 481 kts 284°
2026-05-06 13:01 3.78834 92.84783 35804 ft 480 kts 284°
2026-05-06 13:01 3.80515 92.78312 35803 ft 480 kts 284°
2026-05-06 13:02 3.82198 92.71836 35806 ft 481 kts 284°
2026-05-06 13:02 3.83878 92.65357 35804 ft 480 kts 284°
2026-05-06 13:03 3.85548 92.58921 35804 ft 480 kts 284°
2026-05-06 13:03 3.87227 92.52451 35803 ft 479 kts 284°
2026-05-06 13:04 3.88903 92.45986 35805 ft 480 kts 284°
2026-05-06 13:04 3.90579 92.39519 35803 ft 480 kts 284°
2026-05-06 13:05 3.92256 92.33050 35806 ft 480 kts 284°
2026-05-06 13:05 3.93931 92.26578 35803 ft 480 kts 284°
2026-05-06 13:06 3.95606 92.20111 35803 ft 480 kts 284°
2026-05-06 13:06 3.97282 92.13647 35805 ft 480 kts 284°
2026-05-06 13:07 3.98956 92.07163 35803 ft 480 kts 284°
2026-05-06 13:07 4.00617 92.00743 35803 ft 480 kts 284°
2026-05-06 13:08 4.02265 91.94268 35803 ft 480 kts 284°
2026-05-06 13:08 4.03894 91.87783 35804 ft 480 kts 284°
2026-05-06 13:09 4.05522 91.81300 35803 ft 480 kts 284°
2026-05-06 13:09 4.07156 91.74809 35805 ft 480 kts 284°
2026-05-06 13:10 4.08789 91.68320 35804 ft 480 kts 284°
2026-05-06 13:10 4.10423 91.61823 35806 ft 480 kts 284°
2026-05-06 13:11 4.12049 91.55360 35804 ft 481 kts 284°
2026-05-06 13:11 4.13683 91.48863 35803 ft 481 kts 284°
2026-05-06 13:12 4.15321 91.42350 35806 ft 482 kts 284°
2026-05-06 13:12 4.16959 91.35832 35806 ft 482 kts 284°
2026-05-06 13:13 4.18588 91.29356 35805 ft 482 kts 284°
2026-05-06 13:13 4.20223 91.22839 35803 ft 482 kts 284°
2026-05-06 13:14 4.21858 91.16324 35804 ft 483 kts 284°
2026-05-06 13:14 4.23493 91.09800 35803 ft 483 kts 283°
2026-05-06 13:15 4.25127 91.03266 35806 ft 483 kts 283°
2026-05-06 13:15 4.26765 90.96734 35804 ft 484 kts 284°
2026-05-06 13:16 4.28405 90.90198 35803 ft 484 kts 283°
2026-05-06 13:16 4.30047 90.83647 35804 ft 484 kts 283°
2026-05-06 13:17 4.31667 90.77152 35804 ft 485 kts 283°
2026-05-06 13:17 4.33310 90.70589 35803 ft 484 kts 283°
2026-05-06 13:18 4.34953 90.64037 35803 ft 484 kts 283°
2026-05-06 13:18 4.36591 90.57496 35804 ft 484 kts 283°
2026-05-06 13:19 4.38228 90.50950 35805 ft 485 kts 283°
2026-05-06 13:19 4.39868 90.44391 35805 ft 485 kts 283°
2026-05-06 13:20 4.41536 90.37840 35807 ft 485 kts 284°
2026-05-06 13:20 4.43346 90.31331 35804 ft 485 kts 285°
2026-05-06 13:21 4.45187 90.24862 35805 ft 485 kts 285°
2026-05-06 13:21 4.47027 90.18354 35805 ft 485 kts 285°
2026-05-06 13:22 4.48856 90.11843 35803 ft 485 kts 285°
2026-05-06 13:22 4.50679 90.05332 35806 ft 485 kts 285°
2026-05-06 13:23 4.52502 89.98819 35803 ft 485 kts 285°
2026-05-06 13:23 4.54314 89.92342 35803 ft 485 kts 285°
2026-05-06 13:24 4.56137 89.85826 35805 ft 485 kts 285°
2026-05-06 13:24 4.57958 89.79311 35805 ft 486 kts 285°
2026-05-06 13:25 4.59786 89.72785 35814 ft 486 kts 285°
2026-05-06 13:25 4.61609 89.66267 35814 ft 486 kts 285°
2026-05-06 13:26 4.63430 89.59744 35814 ft 486 kts 285°
2026-05-06 13:26 4.65251 89.53219 35813 ft 486 kts 285°
2026-05-06 13:27 4.67070 89.46703 35813 ft 486 kts 285°
2026-05-06 13:27 4.68893 89.40176 35813 ft 486 kts 285°
2026-05-06 13:28 4.70712 89.33656 35814 ft 486 kts 285°
2026-05-06 13:28 4.72517 89.27177 35814 ft 485 kts 285°
2026-05-06 13:29 4.74336 89.20653 35813 ft 486 kts 285°
2026-05-06 13:29 4.76155 89.14122 35813 ft 486 kts 285°
2026-05-06 13:30 4.77972 89.07604 35814 ft 485 kts 285°
2026-05-06 13:30 4.79787 89.01083 35813 ft 486 kts 285°
2026-05-06 13:31 4.81605 88.94550 35813 ft 486 kts 285°
2026-05-06 13:31 4.83422 88.88025 35814 ft 486 kts 284°
2026-05-06 13:32 4.85224 88.81546 35813 ft 485 kts 284°
2026-05-06 13:32 4.87038 88.75020 35814 ft 485 kts 284°
2026-05-06 13:33 4.88850 88.68495 35813 ft 485 kts 284°
2026-05-06 13:33 4.90663 88.61966 35814 ft 485 kts 284°
2026-05-06 13:34 4.92460 88.55493 35814 ft 485 kts 285°
2026-05-06 13:34 4.94270 88.48969 35813 ft 484 kts 284°
2026-05-06 13:35 4.96079 88.42452 35813 ft 485 kts 284°
2026-05-06 13:35 4.97887 88.35934 35813 ft 485 kts 284°
2026-05-06 13:36 4.99699 88.29398 35814 ft 485 kts 284°
2026-05-06 13:36 5.01504 88.22878 35813 ft 485 kts 284°
2026-05-06 13:37 5.03301 88.16393 35813 ft 485 kts 284°
2026-05-06 13:37 5.05108 88.09868 35813 ft 485 kts 284°
2026-05-06 13:38 5.06917 88.03336 35813 ft 486 kts 285°
2026-05-06 13:38 5.08704 87.96797 35814 ft 486 kts 284°
2026-05-06 13:39 5.10420 87.90291 35813 ft 485 kts 284°
2026-05-06 13:39 5.12133 87.83754 35823 ft 485 kts 284°
2026-05-06 13:40 5.13855 87.77208 35822 ft 485 kts 284°
2026-05-06 13:40 5.15582 87.70658 35823 ft 485 kts 284°
2026-05-06 13:41 5.17308 87.64110 35824 ft 485 kts 284°
2026-05-06 13:41 5.19033 87.57560 35823 ft 485 kts 284°
2026-05-06 13:42 5.20760 87.51001 35824 ft 486 kts 284°
2026-05-06 13:42 5.22476 87.44482 35823 ft 486 kts 283°
2026-05-06 13:43 5.24202 87.37926 35823 ft 486 kts 283°
2026-05-06 13:43 5.25926 87.31374 35822 ft 486 kts 284°
2026-05-06 13:44 5.27647 87.24825 35822 ft 485 kts 283°
2026-05-06 13:44 5.29370 87.18265 35823 ft 486 kts 283°
2026-05-06 13:45 5.31091 87.11710 35822 ft 486 kts 283°
2026-05-06 13:45 5.33673 87.01876 35822 ft 486 kts 283°
2026-05-06 13:46 5.35395 86.95310 35822 ft 486 kts 283°
2026-05-06 13:46 5.36824 86.89857 35822 ft 486 kts 283°
2026-05-06 13:47 5.38543 86.83299 35822 ft 486 kts 283°
2026-05-06 13:47 5.40265 86.76731 35823 ft 486 kts 283°
2026-05-06 13:48 5.41984 86.70167 35824 ft 486 kts 283°
2026-05-06 13:48 5.43691 86.63646 35822 ft 486 kts 283°
2026-05-06 13:49 5.45409 86.57084 35823 ft 486 kts 283°
2026-05-06 13:49 5.47125 86.50520 35823 ft 486 kts 283°
2026-05-06 13:50 5.48841 86.43951 35822 ft 487 kts 283°
2026-05-06 13:50 5.50557 86.37380 35822 ft 486 kts 283°
2026-05-06 13:51 5.52275 86.30796 35824 ft 487 kts 283°
2026-05-06 13:51 5.53992 86.24218 35823 ft 487 kts 283°
2026-05-06 13:52 5.55712 86.17627 35822 ft 487 kts 283°
2026-05-06 13:52 5.57418 86.11085 35824 ft 487 kts 283°
2026-05-06 13:53 5.59134 86.04504 35822 ft 487 kts 283°
2026-05-06 13:53 5.60850 85.97917 35822 ft 487 kts 283°
2026-05-06 13:54 5.62555 85.91366 35823 ft 487 kts 283°
2026-05-06 13:54 5.64270 85.84774 35822 ft 488 kts 283°
2026-05-06 13:55 5.65984 85.78182 35823 ft 488 kts 283°
2026-05-06 13:55 5.67700 85.71584 35822 ft 488 kts 283°
2026-05-06 13:56 5.69414 85.64993 35823 ft 488 kts 283°
2026-05-06 13:56 5.71127 85.58400 35822 ft 487 kts 283°
2026-05-06 13:57 5.72827 85.51852 35823 ft 487 kts 283°
2026-05-06 13:57 5.74536 85.45265 35823 ft 487 kts 283°
2026-05-06 13:58 5.76243 85.38680 35822 ft 487 kts 283°
2026-05-06 13:58 5.77950 85.32092 35822 ft 487 kts 283°
2026-05-06 13:59 5.79648 85.25537 35823 ft 487 kts 283°
2026-05-06 13:59 5.81354 85.18948 35822 ft 487 kts 283°
2026-05-06 14:00 5.83060 85.12360 35823 ft 487 kts 283°
2026-05-06 14:00 5.84766 85.05771 35822 ft 487 kts 283°
2026-05-06 14:01 5.86468 84.99193 35824 ft 487 kts 283°
2026-05-06 14:01 5.88159 84.92653 35823 ft 487 kts 283°
2026-05-06 14:02 5.89857 84.86071 35822 ft 486 kts 283°
2026-05-06 14:02 5.91552 84.79495 35824 ft 486 kts 283°
2026-05-06 14:03 5.93250 84.72916 35823 ft 486 kts 283°
2026-05-06 14:03 5.94945 84.66340 35823 ft 486 kts 283°
2026-05-06 14:04 5.96640 84.59765 35823 ft 486 kts 283°
2026-05-06 14:04 5.98335 84.53185 35822 ft 486 kts 283°
2026-05-06 14:05 6.00031 84.46596 35822 ft 486 kts 283°
2026-05-06 14:05 6.01715 84.40056 35822 ft 486 kts 283°
2026-05-06 14:06 6.03404 84.33487 35823 ft 486 kts 283°
2026-05-06 14:06 6.05098 84.26899 35823 ft 486 kts 283°
2026-05-06 14:07 6.06794 84.20312 35822 ft 486 kts 283°
2026-05-06 14:07 6.08473 84.13771 35823 ft 486 kts 283°
2026-05-06 14:08 6.10161 84.07186 35823 ft 487 kts 283°
2026-05-06 14:08 6.11850 84.00604 35821 ft 486 kts 283°
2026-05-06 14:09 6.13539 83.94014 35823 ft 486 kts 283°
2026-05-06 14:09 6.15229 83.87413 35883 ft 489 kts 283°
2026-05-06 14:10 6.16078 83.84099 36009 ft 491 kts 283°
2026-05-06 14:10 6.16928 83.80778 36166 ft 490 kts 283°
2026-05-06 14:10 6.17767 83.77496 36325 ft 491 kts 283°
2026-05-06 14:10 6.18618 83.74169 36477 ft 491 kts 283°
2026-05-06 14:11 6.19467 83.70845 36646 ft 491 kts 283°
2026-05-06 14:11 6.20317 83.67522 36850 ft 490 kts 283°
2026-05-06 14:11 6.21164 83.64212 37119 ft 487 kts 283°
2026-05-06 14:11 6.22005 83.60923 37374 ft 485 kts 283°
2026-05-06 14:12 6.22842 83.57648 37586 ft 483 kts 283°
2026-05-06 14:12 6.23677 83.54383 37752 ft 482 kts 283°
2026-05-06 14:12 6.25344 83.47852 37831 ft 481 kts 283°
2026-05-06 14:13 6.27004 83.41350 37833 ft 480 kts 283°
2026-05-06 14:13 6.28661 83.34843 37831 ft 480 kts 283°
2026-05-06 14:14 6.30306 83.28387 37825 ft 480 kts 283°
2026-05-06 14:14 6.31964 83.21883 37821 ft 479 kts 283°
2026-05-06 14:15 6.33618 83.15386 37824 ft 480 kts 283°
2026-05-06 14:15 6.35275 83.08875 37819 ft 480 kts 283°
2026-05-06 14:16 6.36928 83.02372 37821 ft 480 kts 283°
2026-05-06 14:16 6.38571 82.95905 37821 ft 480 kts 283°
2026-05-06 14:17 6.40222 82.89407 37823 ft 480 kts 283°
2026-05-06 14:17 6.41874 82.82894 37823 ft 480 kts 283°
2026-05-06 14:18 6.43530 82.76381 37821 ft 480 kts 283°
2026-05-06 14:18 6.45183 82.69867 37823 ft 480 kts 283°
2026-05-06 14:19 6.46819 82.63395 37824 ft 481 kts 283°
2026-05-06 14:19 6.48470 82.56874 37822 ft 481 kts 283°
2026-05-06 14:20 6.50124 82.50342 37823 ft 481 kts 283°
2026-05-06 14:20 6.51774 82.43824 37819 ft 481 kts 283°
2026-05-06 14:21 6.53424 82.37293 37826 ft 481 kts 283°
2026-05-06 14:21 6.55065 82.30805 37826 ft 481 kts 283°
2026-05-06 14:22 6.56713 82.24284 37824 ft 482 kts 283°
2026-05-06 14:22 6.58362 82.17752 37819 ft 482 kts 283°
2026-05-06 14:23 6.60011 82.11211 37821 ft 482 kts 282°
2026-05-06 14:23 6.61660 82.04674 37822 ft 482 kts 283°
2026-05-06 14:24 6.63307 81.98135 37822 ft 482 kts 283°
2026-05-06 14:24 6.64958 81.91595 37825 ft 482 kts 283°
2026-05-06 14:25 6.66609 81.85072 37822 ft 481 kts 283°
2026-05-06 14:25 6.68248 81.78585 37823 ft 481 kts 283°
2026-05-06 14:26 6.69892 81.72057 37824 ft 481 kts 283°
2026-05-06 14:26 6.71538 81.65529 37823 ft 481 kts 283°
2026-05-06 14:27 6.73187 81.59001 37822 ft 481 kts 283°
2026-05-06 14:27 6.74830 81.52474 37823 ft 481 kts 283°
2026-05-06 14:28 6.76472 81.45939 37824 ft 481 kts 283°
2026-05-06 14:28 6.78114 81.39415 37821 ft 481 kts 283°
2026-05-06 14:29 6.79745 81.32931 37823 ft 481 kts 283°
2026-05-06 14:29 6.81384 81.26401 37825 ft 481 kts 283°
2026-05-06 14:30 6.83022 81.19870 37832 ft 481 kts 283°
2026-05-06 14:30 6.84658 81.13345 37832 ft 481 kts 283°
2026-05-06 14:31 6.86296 81.06811 37821 ft 481 kts 283°
2026-05-06 14:31 6.87936 81.00272 37822 ft 481 kts 283°
2026-05-06 14:32 6.89570 80.93745 37822 ft 481 kts 282°
2026-05-06 14:32 6.91192 80.87247 37824 ft 481 kts 282°
2026-05-06 14:33 6.92824 80.80698 37823 ft 482 kts 282°
2026-05-06 14:33 6.94456 80.74154 37822 ft 482 kts 282°
2026-05-06 14:34 6.95807 80.68726 37824 ft 481 kts 282°
2026-05-06 14:34 6.97435 80.62189 37820 ft 481 kts 282°
2026-05-06 14:35 6.99064 80.55660 37822 ft 481 kts 282°
2026-05-06 14:35 7.00691 80.49119 37820 ft 481 kts 282°
2026-05-06 14:36 7.02581 80.41521 37817 ft 481 kts 282°
2026-05-06 14:36 7.03939 80.36050 37813 ft 481 kts 282°
2026-05-06 14:37 7.05562 80.29510 37813 ft 482 kts 282°
2026-05-06 14:37 7.07186 80.22969 37812 ft 481 kts 282°
2026-05-06 14:38 7.08796 80.16476 37825 ft 481 kts 282°
2026-05-06 14:38 7.10416 80.09940 37820 ft 481 kts 282°
2026-05-06 14:39 7.12032 80.03404 37822 ft 481 kts 282°
2026-05-06 14:39 7.13651 79.96859 37823 ft 481 kts 282°
2026-05-06 14:40 7.15274 79.90313 37837 ft 483 kts 282°
2026-05-06 14:40 7.17543 79.83954 37837 ft 484 kts 292°
2026-05-06 14:41 7.20368 79.77802 37828 ft 483 kts 294°
2026-05-06 14:41 7.23286 79.71689 37832 ft 484 kts 294°
2026-05-06 14:42 7.26192 79.65612 37836 ft 484 kts 294°
2026-05-06 14:42 7.29100 79.59495 37833 ft 484 kts 294°
2026-05-06 14:43 7.32004 79.53368 37832 ft 485 kts 294°
2026-05-06 14:43 7.34904 79.47235 37832 ft 484 kts 294°
2026-05-06 14:44 7.37804 79.41102 37829 ft 484 kts 294°
2026-05-06 14:45 7.42150 79.31907 37833 ft 484 kts 294°
2026-05-06 14:45 7.45047 79.25776 37832 ft 484 kts 294°
2026-05-06 14:46 7.47945 79.19640 37834 ft 484 kts 294°
2026-05-06 14:46 7.50841 79.13506 37832 ft 484 kts 294°
2026-05-06 14:47 7.53599 79.07362 37830 ft 484 kts 292°
2026-05-06 14:47 7.56261 79.01129 37832 ft 484 kts 292°
2026-05-06 14:48 7.58920 78.94889 37833 ft 484 kts 292°
2026-05-06 14:48 7.61593 78.88655 37832 ft 484 kts 292°
2026-05-06 14:49 7.64275 78.82422 37833 ft 484 kts 292°
2026-05-06 14:49 7.66940 78.76229 37825 ft 484 kts 292°
2026-05-06 14:50 7.69619 78.70003 37822 ft 483 kts 292°
2026-05-06 14:50 7.72291 78.63785 37833 ft 483 kts 292°
2026-05-06 14:51 7.74961 78.57567 37833 ft 483 kts 292°
2026-05-06 14:51 7.77628 78.51353 37831 ft 482 kts 292°
2026-05-06 14:52 7.80288 78.45156 37831 ft 482 kts 292°
2026-05-06 14:52 7.82956 78.38939 37832 ft 482 kts 292°
2026-05-06 14:53 7.85617 78.32733 37833 ft 482 kts 292°
2026-05-06 14:53 7.88263 78.26564 37831 ft 481 kts 292°
2026-05-06 14:54 7.90921 78.20361 37833 ft 481 kts 292°
2026-05-06 14:54 7.93584 78.14160 37833 ft 481 kts 292°
2026-05-06 14:55 7.96312 78.07995 37834 ft 481 kts 293°
2026-05-06 14:55 7.99063 78.01836 37832 ft 481 kts 293°
2026-05-06 14:56 8.01811 77.95674 37833 ft 481 kts 293°
2026-05-06 14:56 8.04551 77.89508 37833 ft 481 kts 293°
2026-05-06 14:57 8.07268 77.83383 37833 ft 481 kts 293°
2026-05-06 14:57 8.10003 77.77216 37832 ft 481 kts 293°
2026-05-06 14:58 8.12739 77.71049 37832 ft 481 kts 293°
2026-05-06 14:58 8.15471 77.64885 37833 ft 481 kts 293°
2026-05-06 14:59 8.18201 77.58721 37831 ft 481 kts 293°
2026-05-06 14:59 8.20929 77.52561 37834 ft 481 kts 293°
2026-05-06 15:00 8.23663 77.46383 37833 ft 482 kts 293°
2026-05-06 15:00 8.26381 77.40240 37832 ft 481 kts 293°
2026-05-06 15:01 8.29109 77.34069 37833 ft 481 kts 293°
2026-05-06 15:01 8.31844 77.27880 37831 ft 481 kts 293°
2026-05-06 15:02 8.34574 77.21703 37833 ft 482 kts 293°
2026-05-06 15:02 8.37286 77.15562 37830 ft 481 kts 293°
2026-05-06 15:03 8.40013 77.09382 37831 ft 481 kts 293°
2026-05-06 15:03 8.42732 77.03209 37833 ft 481 kts 294°
2026-05-06 15:04 8.45454 76.97032 37832 ft 481 kts 294°
2026-05-06 15:04 8.47997 76.90771 37833 ft 481 kts 289°
2026-05-06 15:05 8.50199 76.84387 37833 ft 482 kts 288°
2026-05-06 15:05 8.52339 76.77966 37832 ft 482 kts 288°
2026-05-06 15:06 8.54474 76.71536 37831 ft 482 kts 288°
2026-05-06 15:06 8.56607 76.65136 37831 ft 483 kts 288°
2026-05-06 15:07 8.58753 76.58708 37832 ft 482 kts 288°
2026-05-06 15:07 8.60895 76.52286 37823 ft 482 kts 288°
2026-05-06 15:08 8.63040 76.45854 37823 ft 483 kts 288°
2026-05-06 15:08 8.65187 76.39410 37825 ft 484 kts 288°
2026-05-06 15:09 8.67318 76.33009 37821 ft 484 kts 288°
2026-05-06 15:09 8.69462 76.26566 37823 ft 484 kts 288°
2026-05-06 15:10 8.71607 76.20119 37805 ft 483 kts 288°
2026-05-06 15:10 8.73743 76.13691 37804 ft 481 kts 288°
2026-05-06 15:11 8.75873 76.07275 37804 ft 481 kts 288°
2026-05-06 15:11 8.78001 76.00862 37804 ft 481 kts 288°
2026-05-06 15:12 8.80128 75.94451 37807 ft 482 kts 288°
2026-05-06 15:12 8.82258 75.88023 37805 ft 482 kts 288°
2026-05-06 15:13 8.84387 75.81594 37802 ft 482 kts 288°
2026-05-06 15:13 8.86500 75.75213 37795 ft 482 kts 288°
2026-05-06 15:14 8.88628 75.68788 37795 ft 482 kts 288°
2026-05-06 15:14 8.90751 75.62367 37794 ft 482 kts 288°
2026-05-06 15:15 8.92878 75.55929 37795 ft 482 kts 288°
2026-05-06 15:15 8.95007 75.49485 37803 ft 482 kts 288°
2026-05-06 15:16 8.97133 75.43043 37803 ft 482 kts 288°
2026-05-06 15:16 8.99257 75.36604 37796 ft 482 kts 288°
2026-05-06 15:17 9.01364 75.30208 37795 ft 482 kts 287°
2026-05-06 15:17 9.03487 75.23761 37795 ft 482 kts 288°
2026-05-06 15:18 9.05610 75.17319 37795 ft 482 kts 287°
2026-05-06 15:18 9.07728 75.10883 37795 ft 482 kts 287°
2026-05-06 15:19 9.09842 75.04451 37795 ft 482 kts 287°
2026-05-06 15:19 9.11957 74.98012 37795 ft 482 kts 287°
2026-05-06 15:20 9.14071 74.91577 37795 ft 482 kts 287°
2026-05-06 15:20 9.16169 74.85181 37795 ft 482 kts 287°
2026-05-06 15:21 9.18281 74.78737 37794 ft 482 kts 287°
2026-05-06 15:21 9.20038 74.73379 37795 ft 483 kts 287°
2026-05-06 15:22 9.22511 74.65833 37795 ft 483 kts 287°
2026-05-06 15:22 9.24264 74.60472 37795 ft 483 kts 287°
2026-05-06 15:23 9.26373 74.54022 37794 ft 483 kts 287°
2026-05-06 15:23 9.28481 74.47571 37795 ft 483 kts 287°
2026-05-06 15:24 9.30588 74.41122 37797 ft 483 kts 287°
2026-05-06 15:24 9.32691 74.34675 37796 ft 482 kts 287°
2026-05-06 15:25 9.34790 74.28253 37795 ft 483 kts 287°
2026-05-06 15:25 9.36893 74.21802 37795 ft 483 kts 287°
2026-05-06 15:26 9.38994 74.15347 37795 ft 482 kts 287°
2026-05-06 15:26 9.41094 74.08895 37795 ft 482 kts 287°
2026-05-06 15:27 9.43232 74.02443 37795 ft 483 kts 288°
2026-05-06 15:27 9.45368 73.96042 37795 ft 483 kts 288°
2026-05-06 15:28 9.47513 73.89602 37795 ft 482 kts 288°
2026-05-06 15:28 9.49649 73.83176 37794 ft 481 kts 288°
2026-05-06 15:29 9.51785 73.76738 37795 ft 482 kts 288°
2026-05-06 15:29 9.53918 73.70305 37793 ft 482 kts 288°
2026-05-06 15:30 9.56053 73.63860 37785 ft 482 kts 288°
2026-05-06 15:30 9.58173 73.57456 37786 ft 482 kts 288°
2026-05-06 15:31 9.60306 73.51016 37785 ft 482 kts 288°
2026-05-06 15:31 9.62437 73.44575 37785 ft 482 kts 288°
2026-05-06 15:32 9.65633 73.34904 37786 ft 482 kts 287°
2026-05-06 15:32 9.67747 73.28501 37786 ft 482 kts 288°
2026-05-06 15:33 9.69876 73.22052 37785 ft 482 kts 288°
2026-05-06 15:33 9.72000 73.15609 37786 ft 482 kts 287°
2026-05-06 15:34 9.74124 73.09164 37785 ft 482 kts 288°
2026-05-06 15:34 9.76248 73.02711 37786 ft 482 kts 288°
2026-05-06 15:35 9.78356 72.96307 37785 ft 482 kts 288°
2026-05-06 15:35 9.80474 72.89869 37785 ft 481 kts 288°
2026-05-06 15:36 9.82589 72.83430 37777 ft 481 kts 288°
2026-05-06 15:36 9.84705 72.76988 37777 ft 481 kts 288°
2026-05-06 15:37 9.86806 72.70588 37777 ft 480 kts 288°
2026-05-06 15:37 9.88909 72.64170 37776 ft 479 kts 288°
2026-05-06 15:38 9.91011 72.57753 37776 ft 479 kts 288°
2026-05-06 15:38 9.93112 72.51340 37776 ft 479 kts 288°
2026-05-06 15:39 9.95208 72.44933 37792 ft 478 kts 288°
2026-05-06 15:39 9.97803 72.38738 37795 ft 478 kts 301°
2026-05-06 15:40 10.01350 72.33031 37795 ft 478 kts 303°
2026-05-06 15:40 10.05073 72.27430 37795 ft 478 kts 304°
2026-05-06 15:41 10.08815 72.21849 37795 ft 477 kts 304°
2026-05-06 15:41 10.12533 72.16259 37795 ft 478 kts 304°
2026-05-06 15:42 10.16242 72.10657 37795 ft 478 kts 304°
2026-05-06 15:42 10.19923 72.05086 37791 ft 478 kts 304°
2026-05-06 15:43 10.23629 71.99479 37785 ft 478 kts 303°
2026-05-06 15:43 10.27338 71.93862 37785 ft 478 kts 304°
2026-05-06 15:44 10.31041 71.88253 37785 ft 478 kts 303°
2026-05-06 15:44 10.34717 71.82681 37798 ft 478 kts 303°
2026-05-06 15:45 10.38419 71.77069 37804 ft 478 kts 303°
2026-05-06 15:45 10.42116 71.71461 37804 ft 478 kts 303°
2026-05-06 15:46 10.45817 71.65841 37804 ft 478 kts 303°
2026-05-06 15:46 10.49520 71.60221 37804 ft 478 kts 303°
2026-05-06 15:47 10.53194 71.54640 37804 ft 478 kts 303°
2026-05-06 15:47 10.56901 71.49008 37804 ft 479 kts 303°
2026-05-06 15:48 10.60611 71.43367 37804 ft 479 kts 303°
2026-05-06 15:48 10.64311 71.37739 37804 ft 479 kts 303°
2026-05-06 15:49 10.67991 71.32135 37804 ft 479 kts 303°
2026-05-06 15:49 10.71695 71.26496 37804 ft 479 kts 303°
2026-05-06 15:50 10.75392 71.20865 37804 ft 479 kts 303°
2026-05-06 15:50 10.79091 71.15223 37804 ft 479 kts 303°
2026-05-06 15:51 10.82789 71.09578 37804 ft 478 kts 303°
2026-05-06 15:51 10.86456 71.03978 37804 ft 479 kts 303°
2026-05-06 15:52 10.90153 70.98335 37805 ft 479 kts 303°
2026-05-06 15:52 10.93852 70.92688 37804 ft 479 kts 303°
2026-05-06 15:53 10.97544 70.87044 37804 ft 479 kts 303°
2026-05-06 15:53 11.01233 70.81400 37804 ft 479 kts 303°
2026-05-06 15:54 11.04924 70.75750 37804 ft 479 kts 303°
2026-05-06 15:54 11.08617 70.70098 37804 ft 479 kts 303°
2026-05-06 15:55 11.12287 70.64475 37804 ft 479 kts 303°
2026-05-06 15:55 11.15973 70.58826 37804 ft 479 kts 303°
2026-05-06 15:56 11.19661 70.53172 37804 ft 479 kts 303°
2026-05-06 15:56 11.23346 70.47519 37804 ft 479 kts 303°
2026-05-06 15:57 11.27026 70.41872 37804 ft 478 kts 303°
2026-05-06 15:57 11.30703 70.36223 37804 ft 479 kts 303°
2026-05-06 15:58 11.34359 70.30603 37804 ft 478 kts 303°
2026-05-06 15:58 11.38057 70.24915 37804 ft 478 kts 303°
2026-05-06 15:59 11.41727 70.19267 37805 ft 478 kts 303°
2026-05-06 15:59 11.45378 70.13646 37813 ft 478 kts 303°
2026-05-06 16:00 11.49073 70.07957 37814 ft 478 kts 303°
2026-05-06 16:00 11.52711 70.02349 37814 ft 477 kts 303°
2026-05-06 16:01 11.56375 69.96700 37813 ft 477 kts 303°
2026-05-06 16:01 11.60033 69.91057 37813 ft 477 kts 303°
2026-05-06 16:02 11.63693 69.85399 37813 ft 477 kts 303°
2026-05-06 16:02 11.67334 69.79734 37813 ft 477 kts 302°
2026-05-06 16:03 11.70969 69.74066 37813 ft 477 kts 302°
2026-05-06 16:03 11.74587 69.68425 37813 ft 477 kts 303°
2026-05-06 16:04 11.78223 69.62756 37806 ft 477 kts 303°
2026-05-06 16:04 11.81857 69.57090 37804 ft 477 kts 303°
2026-05-06 16:05 11.85490 69.51422 37804 ft 477 kts 302°
2026-05-06 16:05 11.89122 69.45749 37804 ft 477 kts 302°
2026-05-06 16:06 11.92754 69.40071 37804 ft 477 kts 302°
2026-05-06 16:06 11.96382 69.34395 37804 ft 477 kts 302°
2026-05-06 16:07 12.00009 69.28725 37790 ft 477 kts 302°
2026-05-06 16:07 12.03639 69.23044 37776 ft 476 kts 302°
2026-05-06 16:08 12.07232 69.17418 37776 ft 475 kts 302°
2026-05-06 16:08 12.10842 69.11761 37776 ft 475 kts 302°
2026-05-06 16:09 12.14454 69.06101 37785 ft 475 kts 302°
2026-05-06 16:09 12.18065 69.00439 37786 ft 475 kts 302°
2026-05-06 16:10 12.21678 68.94785 37786 ft 475 kts 302°
2026-05-06 16:10 12.24679 68.90095 37786 ft 474 kts 302°
2026-05-06 16:11 12.28884 68.83525 37786 ft 475 kts 303°
2026-05-06 16:11 12.31914 68.78784 37785 ft 475 kts 302°
2026-05-06 16:12 12.35502 68.73167 37785 ft 474 kts 302°
2026-05-06 16:12 12.39113 68.67509 37785 ft 475 kts 302°
2026-05-06 16:13 12.42722 68.61852 37786 ft 474 kts 302°
2026-05-06 16:13 12.46327 68.56197 37786 ft 474 kts 302°
2026-05-06 16:14 12.49934 68.50537 37785 ft 474 kts 302°
2026-05-06 16:14 12.53540 68.44876 37785 ft 474 kts 302°
2026-05-06 16:15 12.57119 68.39249 37786 ft 474 kts 302°
2026-05-06 16:15 12.60721 68.33586 37785 ft 475 kts 302°
2026-05-06 16:16 12.64325 68.27917 37785 ft 474 kts 302°
2026-05-06 16:16 12.67930 68.22245 37786 ft 474 kts 302°
2026-05-06 16:17 12.71527 68.16579 37785 ft 474 kts 302°
2026-05-06 16:17 12.75105 68.10942 37786 ft 474 kts 302°
2026-05-06 16:18 12.78697 68.05274 37786 ft 474 kts 302°
2026-05-06 16:18 12.82297 67.99604 37785 ft 474 kts 302°
2026-05-06 16:19 12.85909 67.93955 37786 ft 474 kts 303°
2026-05-06 16:19 12.89523 67.88310 37785 ft 474 kts 303°
2026-05-06 16:20 12.93141 67.82654 37778 ft 474 kts 303°
2026-05-06 16:20 12.96734 67.77031 37776 ft 474 kts 303°
2026-05-06 16:21 13.00347 67.71375 37776 ft 474 kts 303°
2026-05-06 16:21 13.03954 67.65719 37776 ft 473 kts 303°
2026-05-06 16:22 13.07554 67.60070 37776 ft 473 kts 303°
2026-05-06 16:22 13.11155 67.54417 37776 ft 473 kts 303°
2026-05-06 16:23 13.14758 67.48758 37776 ft 473 kts 303°
2026-05-06 16:23 13.18339 67.43127 37775 ft 473 kts 303°
2026-05-06 16:24 13.21934 67.37475 37776 ft 473 kts 303°
2026-05-06 16:24 13.25532 67.31810 37777 ft 473 kts 303°
2026-05-06 16:25 13.29126 67.26150 37776 ft 473 kts 303°
2026-05-06 16:25 13.32725 67.20484 37775 ft 474 kts 303°
2026-05-06 16:26 13.36325 67.14802 37776 ft 474 kts 303°
2026-05-06 16:26 13.39896 67.09170 37777 ft 473 kts 303°
2026-05-06 16:27 13.43489 67.03499 37776 ft 473 kts 303°
2026-05-06 16:27 13.47077 66.97830 37775 ft 473 kts 303°
2026-05-06 16:28 13.50669 66.92151 37776 ft 473 kts 303°
2026-05-06 16:28 13.54257 66.86478 37777 ft 473 kts 303°
2026-05-06 16:29 13.57846 66.80798 37776 ft 473 kts 303°
2026-05-06 16:29 13.61410 66.75147 37776 ft 473 kts 303°
2026-05-06 16:30 13.64407 66.70401 37776 ft 473 kts 303°
2026-05-06 16:30 13.68568 66.63805 37776 ft 473 kts 303°
2026-05-06 16:31 13.72145 66.58120 37776 ft 473 kts 303°
2026-05-06 16:31 13.75719 66.52444 37776 ft 473 kts 303°
2026-05-06 16:32 13.79295 66.46760 37776 ft 472 kts 303°
2026-05-06 16:32 13.82864 66.41086 37776 ft 473 kts 303°
2026-05-06 16:33 13.86417 66.35434 37776 ft 473 kts 303°
2026-05-06 16:34 13.91775 66.26907 37785 ft 472 kts 303°
2026-05-06 16:34 13.95341 66.21222 37786 ft 472 kts 303°
2026-05-06 16:35 13.98904 66.15541 37786 ft 472 kts 303°
2026-05-06 16:35 14.02469 66.09852 37786 ft 473 kts 303°
2026-05-06 16:36 14.06032 66.04157 37785 ft 472 kts 303°
2026-05-06 16:36 14.09568 65.98505 37786 ft 472 kts 303°
2026-05-06 16:37 14.13129 65.92808 37785 ft 472 kts 303°
2026-05-06 16:37 14.16684 65.87115 37785 ft 473 kts 303°
2026-05-06 16:38 14.20238 65.81418 37786 ft 472 kts 303°
2026-05-06 16:38 14.23792 65.75724 37786 ft 472 kts 303°